Regional Weather Roundup
Issued by NWS Sterling, VA

Home | Current Version | Previous Version | Graphics & Text | Print | Product List | Glossary On
Versions: 1 2 3 4 5 6 7 8 9 10 11 12 13 14 15 16 17 18 19 20 21 22 23 24 25 26 27
000
ASUS41 KLWX 241310
RWRLWX

REGIONAL WEATHER ROUNDUP
NATIONAL WEATHER SERVICE BALTIMORE MD/WASHINGTON DC
900 AM EDT TUE MAY 24 2016

Note: "FAIR" indicates few or no clouds below 12,000 feet
with no significant weather and/or obstructions to visibility.
 TC=TEMPERATURE CELSIUS

 * =Non NWS site. Station does not report precipitation (e.g. rain,
    snow, etc.), thunder, or fog.

DCZ001-MDZ009-015-VAZ040>042-051-053>054-241400-
WASHINGTON METRO

CITY           SKY/WX    TMP DP  RH WIND       PRES   REMARKS
WASHINGTON NAT FAIR      69  54  58 NW14G22   30.00R
DULLES         FAIR      67  55  65 NW13      30.02R
QUANTICO       FAIR      66  57  72 NW8       30.02R
LEESBURG*      FAIR      70  57  64 NW12G18   30.04R
MANASSAS*      SUNNY     63  61  94 CALM      30.02R

$$

MDZ006>007-011-014-241400-
BALTIMORE METRO

CITY           SKY/WX    TMP DP  RH WIND       PRES   REMARKS
BWI AIRPORT    PTSUNNY   66  54  65 NW13      29.98R
MD SCIENCE CTR   N/A     68  51  54 MISG      30.00R
MARTIN STATE   MOSUNNY   66  59  77 NW8       29.99R
ANNAPOLIS      SUNNY     66  55  67 NW8       29.98R
FORT MEADE*    SUNNY     63  57  82 NW6       30.01R

$$

MDZ012-015-019>023-241400-
MARYLAND EASTERN SHORE

CITY           SKY/WX    TMP DP  RH WIND       PRES   REMARKS
OCEAN CITY     CLOUDY    66  57  72 W7        29.95S
SALISBURY      MOSUNNY   65  57  75 W10       29.96R
CAMBRIDGE*     SUNNY     63  55  77 W9        29.97R
EASTON*        PTSUNNY   64  61  88 NW8       30.00R

$$

MDZ017>025-241400-
SOUTHERN MARYLAND

CITY           SKY/WX    TMP DP  RH WIND       PRES   REMARKS
PATUXENT RIVER PTSUNNY   68  55  63 W13G22    29.98R
ST INIGOES     SUNNY     65  57  75 W9        29.99R
LEONARDTOWN*   SUNNY     64  55  72 W9        30.01R

$$

MDZ003>005-241400-
NORTH CENTRAL MARYLAND

CITY           SKY/WX    TMP DP  RH WIND       PRES   REMARKS
FREDERICK*     SUNNY     70  59  68 CALM      30.04R
HAGERSTOWN APT SUNNY     64  53  67 CALM      30.04R
WESTMINSTER*   SUNNY     63  45  51 NW5       30.01R

$$

MDZ501>502-241400-
WESTERN MARYLAND

CITY           SKY/WX    TMP DP  RH WIND       PRES   REMARKS
OAKLAND*       NOT AVBL
CUMBERLAND*    SUNNY     59  55  88 CALM      30.11R

$$

VAZ025>031-241400-
SHENANDOAH VALLEY

CITY           SKY/WX    TMP DP  RH WIND       PRES   REMARKS
WINCHESTER*    FAIR      68  54  60 W7        30.05R
FRONT ROYAL*   FAIR      63  55  77 S7        30.05R
LURAY*         FAIR      63  57  82 CALM      30.08R
NEW MARKET*    FAIR      62  56  80 CALM      30.07R
STAUNTON*      FAIR      65  60  83 SE5       30.11S
WAYNESBORO*    FAIR      63  53  69 SW6       30.11R

$$

WVZ021-048>050-054>055-241400-
EASTERN WEST VIRGINIA PANHANDLE

CITY           SKY/WX    TMP DP  RH WIND       PRES   REMARKS
MARTINSBURG    FAIR      63  55  75 CALM      30.05R
PETERSBURG*    FAIR      64  58  81 CALM      30.10R

$$

VAZ036>039-050-241400-
CENTRAL FOOTHILLS

CITY           SKY/WX    TMP DP  RH WIND       PRES   REMARKS
CHARLOTTESVILL FAIR      69  55  60 CALM      30.05R
CULPEPER*      FAIR      66  59  80 CALM      30.05R
ORANGE*        FAIR      68  59  73 CALM      30.06R
GORDONSVILLE*  FAIR      70  56  61 NW3       30.04R
WARRENTON*     FAIR      64  56  73 CALM      30.03R

$$

VAZ055>057-241400-
NORTH AND CENTRAL PIEDMONT

CITY           SKY/WX    TMP DP  RH WIND       PRES   REMARKS
FREDERICKSBRG* FAIR      68  57  68 W8        30.02R
STAFFORD*      FAIR      64  56  76 NW6       30.06R

$$

NCZ024-NYZ072-PAZ021-071-VAZ022-071-241400-
OTHER REGIONAL OBSERVATIONS

CITY           SKY/WX    TMP DP  RH WIND       PRES   REMARKS
NEW YORK CITY  LGT RAIN  60  57  89 VRB3      29.94R FOG
PHILADELPHIA   CLOUDY    63  55  75 W5        29.94S
PITTSBURGH     SUNNY     61  51  70 SE3       30.09R
ROANOKE        FAIR      62  54  74 CALM      30.15R
RICHMOND       FAIR      64  55  72 W5        30.04R
RALEIGH        MOSUNNY   64  57  78 SW8       30.12R

$$

ANZ530>537-241400-
MARINE OBSERVATIONS

STATION/POSITION TIME  TEMP    WIND        PRES
                       AIR SEA DIR/SP/G
                 (UTC) (F)     (DEG/KT/KT) (MB)
THOMAS PT LIGHT  1300   64 61  300/ 15/ 18 1016.3R
BALT KEY BRIDGE  1200   63     280/  8/  9 1014.1R
COVE POINT       1200   63     310/ 12/ 17 1015.1R
LEWISETTA        1200   62 63  290/  6/  7 1014.7R
SOLOMONS ISLAND  1200   64 62  280/  5/  8   N/A
PINEY POINT      1200          330/  8/  8   N/A

$$





USA.gov is the U.S. government's official web portal to all federal, state and local government web resources and services.